Погода в Коммунаре

Россия / Санкт-Петербург и Ленинградская область     59°37′17″N   30°23′36″E
темп.,
°C
ветер,
м/с
пор.,
м/с
влажн.,
%
обл.,
%
осадки,
мм/ч
давл.,
гПа
погр.,
м
31 июля, сб
сб3100:00+15ю3126996 0.0 998363
03:00+16ю61268100 0.0 995992
06:00+15ююз5118695 0.3 995951
09:00+16юз6118174 0.8 9951025
12:00+20з7115964 0.4 9971599
15:00+23з6114248 0.7 9982249
18:00+23зсз5104331 0.0 10002050
21:00+17юз2269100 0.0 100114
1 августа, вс
вс100:00+16юз310815 0.0 1002287
03:00+14юз399999 0.0 1003298
06:00+14ююз299587 0.0 1003264
09:00+16ю389586 1.3 1002418
12:00+20ююз48776 0.9 1002974
15:00+24юз5946100 1.8 10012356
18:00+18юз412824 1.0 1002648
21:00+19зюз411696 1.1 1003789
2 августа, пн
пн200:00+16зюз3983100 0.0 1004403
03:00+13юз28948 0.0 1005207
06:00+13юз289376 0.0 1005227
09:00+19юз3662100 0.0 1005777
12:00+22ююз3456100 0.1 10041531
15:00+18ююв4785100 1.6 1002327
18:00+16ююз1298100 3.2 1002158
21:00+15зсз1298100 4.4 100058
3 августа, вт
вт300:00+15з2598100 0.1 1000166
03:00+14зюз279819 0.4 1000171
06:00+13з310965 0.2 1001340
09:00+16зюз48775 0.2 1002634
12:00+21зюз574731 0.0 10021846
15:00+20з575061 0.0 10041885
18:00+18з585823 0.1 10061344
21:00+14з48786 0.1 1007644
4 августа, ср
ср400:00+13зсз3987100 0.2 1009464
03:00+13з3882100 0.3 1010239
06:00+12з268380 0.1 1012175
09:00+17сз245533 0.1 1013766
12:00+18ссз1345100 0.0 1014726
15:00+20юз2339100 0.0 10151673
18:00+20юз234058 0.0 10151232
21:00+16ююз115888 0.0 101623